Other Public Products
Issued by NWS Charleston, SC

Home | Current Version | Previous Version | Text Only | Print | Product List | Glossary On
Versions: 1 2 3 4 5 6 7 8 9 10 11 12 13 14 15 16 17 18 19 20 21 22 23 24 25 26 27 28 29 30 31 32 33 34 35 36 37 38 39 40 41 42 43 44 45 46 47 48 49 50
000
FPUS82 KCHS 230927
OPUCHS

TEST...KCHS/KSAV Gateway Observations...TEST
National Weather Service Charleston SC
500 AM EDT SUN APR 23 2017

NOTE: "fair" indicates few or no clouds below 12,000 feet with no
significant weather and/or obstructions to visibility.

SCZ050-WAZ558-NCZ071-TXZ119-213-PAZ071-DCZ001-FLZ074-172-MI076-
NYZ176-178-MAZ016-IL014-TNZ027-NJZ106-GAZ044-MD014-231000-

...Gateway Observations for Charleston International...

CITY           SKY/WX    TMP DP  RH WIND       PRES   REMARKS
Chas Airport   PTCLDY    71  67  87 S12       29.86S
Seattle        PTCLDY    49  44  83 CALM      29.96S
Charlotte      LGT RAIN  55  52  89 NE13      29.91F
Dallas DFW     CLEAR     51  43  74 NW7       30.12S
Dallas Love    CLEAR     51  43  74 NW7       30.13S
Philladelphia  CLOUDY    47  36  65 N9        30.07R
Wash National  CLOUDY    51  43  74 N12       30.08R
Baltimore      CLOUDY    47  40  76 N5        30.07S
Miami          LGT RAIN  76  73  91 SE9       29.81R
Detroit        CLEAR     38  33  82 NW5       30.12S WCI  34
Newark         CLOUDY    47  35  63 N9        30.05R
Laguardia      CLOUDY    49  35  58 N12       30.05R
J F K          CLOUDY    48  37  65 N14       30.05R
Boston Logan   CLOUDY    42  37  82 NW9       30.00R
Ft. Lauderdale RAIN      76  74  93 SE22      29.79S
Chicago O`Hare CLEAR     41  29  62 CALM      30.12S
Chicago Midway CLEAR     41  32  70 CALM      30.13S
Houston Bush   PTCLDY    56  42  59 N9        30.06F
Houston Hobby  PTCLDY    57  42  57 N18G25    30.04F
Nashville      DRIZZLE   51  49  92 NE10      29.84F FOG
Atlanta        TSTM      63  58  83 E6        29.83S

$$

GAZ044-118-TXZ119-213-NCZ071-DCZ001-MDZ014-506-PAZ021-071-NJZ106-
NYZ176-178-MAZ106-OHZ011-021-055-MIZ076-KYZ091-ILZ014-INZ047-
MNZ060-ONZ431-231000-

...Gateway Observations for Savannah International...

CITY           SKY/WX    TMP DP  RH WIND       PRES   REMARKS
Savannah Arpt  CLEAR     70  67  90 S8        29.86S
Atlanta        TSTM      63  58  83 E6        29.83S
Charlotte      LGT RAIN  55  52  89 NE13      29.91F
Dallas DFW     CLEAR     51  43  74 NW7       30.12S
Houston Bush   PTCLDY    56  42  59 N9        30.06F
Wash National  CLOUDY    51  43  74 N12       30.08R
Wash Dulles    CLOUDY    48  42  80 N10       30.06S
Baltimore      CLOUDY    47  40  76 N5        30.07S
Philadelphia   CLOUDY    47  36  65 N9        30.07R
Newark         CLOUDY    47  35  63 N9        30.05R
Laguardia      CLOUDY    49  35  58 N12       30.05R
J F K          CLOUDY    48  37  65 N14       30.05R
Boston         CLOUDY    42  37  82 NW9       30.00R
Pittsburg      CLEAR     40  33  76 NE5       30.08R WCI  37
Akron          CLEAR     38  32  79 NE7       30.09R WCI  33
Cleveland      CLEAR     37  32  82 S3        30.12S
Cincinnati     CLOUDY    45  35  68 NE16      30.03R
Columbus       CLEAR     38  35  89 NE7       30.07S WCI  32
Detroit        CLEAR     38  33  82 NW5       30.12S WCI  34
Chicago O`Hare CLEAR     41  29  62 CALM      30.12S
Minneapolis    PTCLDY    52  35  52 SW6       30.07S
Indianapolis   CLEAR     45  32  60 NE10      30.06F
Toronto Canada CLEAR     37  27  65 SW3       30.08S

$$




USA.gov is the U.S. government's official web portal to all federal, state and local government web resources and services.